Location: Unspecified
(0.0000°N, 0.0000°E)
Time: 17:58:21
(UTC+00:00)

STARLINK 1017 - Pass Details

Date: 19 January 2020
Orbit: 347 x 353 km, 53.0° (Epoch: 18 January)

Event Time Altitude Azimuth Distance (km) Brightness Sun altitude
Exits shadow 04:46:25 31° 35° (NE) 635 4.0 -19.6°
Drops below altitude 10° 04:48:04 10° 35° (NE) 1,291 5.7 -19.3°
Sets 04:50:04 0° 34° (NE) 2,128 6.8 -18.8°
